Regional Weather Roundup
Issued by NWS

Home | Current Version | Previous Version | Text Only | Print | Product List | Glossary Off
Versions: 1 2 3 4 5 6 7 8 9 10 11 12 13 14 15 16 17 18 19 20 21 22 23 24 25 26 27 28 29 30 31 32 33 34 35 36 37 38 39 40 41 42 43 44 45 46 47 48 49 50

000
ASUS43 KIND 021659
RWRIN

WEATHER ROUNDUP FOR INDIANA
NATIONAL WEATHER SERVICE INDIANAPOLIS IN
100 PM EDT MON MAY 02 2016

NOTE: "FAIR" INDICATES FEW OR NO CLOUDS BELOW 12,000 FEET WITH NO
SIGNIFICANT WEATHER AND/OR OBSTRUCTIONS TO VISIBILITY.

* - STATION DOES NOT REPORT WEATHER SUCH AS PRECIPITATION OR FOG.

+ - STATION NOT QUALITY CONTROLLED BY THE NATIONAL WEATHER SERVICE.
    USE DATA WITH CAUTION...ESPECIALLY DEWPOINT AND RELATIVE
    HUMIDITY OBSERVATIONS.

INZ001>003-010>013-019-020-021800-
NORTHWEST INDIANA

CITY           SKY/WX    TMP DP  RH WIND       PRES   REMARKS
GARY /AIRPORT/ MOSUNNY   52  46  82 N14       30.06R
RENSSELAER +   CLOUDY    52  46  82 NE10      30.04R

$$

LMZ046-743>745-021800-
SOUTHERN LAKE MICHIGAN

STATION/POSITION TIME  TEMP    WIND        PRES    WAVE
                       AIR SEA DIR/SP/G            HT
                 (UTC) (F)     (DEG/KT/KT) (MB)    (FT)
BURNS HARBOR     1624   44      20/ 12/ 17 1017.6R
MICHIGAN CITY    1600   45     340/ 14/ 15   N/A

$$

INZ004-005-014>016-021>024-021800-
NORTH CENTRAL INDIANA

CITY           SKY/WX    TMP DP  RH WIND       PRES   REMARKS
ELKHART        CLOUDY    50  48  93 NE7       30.02F
GOSHEN         CLOUDY    50  46  86 NE6       30.02S
SOUTH BEND     CLOUDY    50  44  80 E3        30.04R

$$

INZ006>009-017-018-025>027-021800-
NORTHEAST INDIANA

CITY           SKY/WX    TMP DP  RH WIND       PRES   REMARKS
ANGOLA *+      CLOUDY    46  37  71 NE6       30.01F
FORT WAYNE     CLOUDY    50  47  89 NE8       30.02R

$$

INZ028-029-035-036-043>045-051>053-021800-
WEST CENTRAL INDIANA

CITY           SKY/WX    TMP DP  RH WIND       PRES   REMARKS
CRAWFORDSVL +  CLOUDY    49  49 100 NW6       30.02R FOG
GREENCASTLE +  CLOUDY    50  50 100 NW5       30.02R
LAFAYETTE      CLOUDY    50  47  89 N6        30.02R
TERRE HAUTE    CLOUDY    53  47  79 W5        30.02S

$$

INZ030>032-037>040-046>048-054>057-064-065-021800-
CENTRAL INDIANA

CITY           SKY/WX    TMP DP  RH WIND       PRES   REMARKS
ANDERSON       CLOUDY    55  52  88 CALM      29.99F
COLUMBUS       CLOUDY    57  55  94 N8        29.99R
INDIANAPOLIS   CLOUDY    55  49  80 W9        29.99R
-EAGLE CREEK   CLOUDY    54  50  86 W7        29.99R
KOKOMO *+      CLOUDY    50  46  87 NE8       30.00R
SHELBYVILLE    CLOUDY    58  50  75 W6        29.98S

$$

INZ033-034-041-042-049-050-058-059-021800-
EAST CENTRAL INDIANA

CITY           SKY/WX    TMP DP  RH WIND       PRES   REMARKS
MUNCIE         CLOUDY    55  50  83 NE7       29.98F

$$

INZ060-061-067>069-081>083-085>088-021800-
SOUTHWEST INDIANA

CITY           SKY/WX    TMP DP  RH WIND       PRES   REMARKS
EVANSVILLE     CLOUDY    60  51  72 VRB5      30.01F
HUNTINGBURG *+ CLOUDY    61  50  67 SW6       30.01F

$$

INZ062-063-066-070>080-084-089>092-021800-
SOUTH CENTRAL AND SOUTHEAST INDIANA

CITY           SKY/WX    TMP DP  RH WIND       PRES   REMARKS
BLOOMINGTON    CLOUDY    56  47  71 W8        30.01R
MADISON *+     CLOUDY    61  48  63 CALM      30.01R
SEYMOUR +      CLOUDY    63  50  63 CALM      29.98

$$




USA.gov is the U.S. government's official web portal to all federal, state and local government web resources and services.